TimeAKST,TemperatureF,Dew PointF,Humidity,Sea Level PressureIn,VisibilityMPH,Wind Direction,Wind SpeedMPH,Gust SpeedMPH,PrecipitationIn,Events,Conditions,WindDirDegrees,DateUTC
12:16 AM,30.2,24.8,80,30.11,10.0,Calm,Calm,-,N/A,,Mostly Cloudy,0,2013-01-15 09:16:00
12:36 AM,30.2,23.0,75,30.12,10.0,Calm,Calm,-,N/A,,Mostly Cloudy,0,2013-01-15 09:36:00
12:56 AM,30.2,24.8,80,30.12,10.0,North,3.5,-,N/A,,Scattered Clouds,10,2013-01-15 09:56:00
1:16 AM,30.2,24.8,80,30.12,10.0,Calm,Calm,-,N/A,,Mostly Cloudy,0,2013-01-15 10:16:00
1:36 AM,30.2,23.0,75,30.13,10.0,Calm,Calm,-,N/A,,Overcast,0,2013-01-15 10:36:00
1:56 AM,30.2,23.0,75,30.14,10.0,Calm,Calm,-,N/A,,Overcast,0,2013-01-15 10:56:00
2:16 AM,30.2,24.8,80,30.14,10.0,Calm,Calm,-,N/A,,Overcast,0,2013-01-15 11:16:00
2:36 AM,30.2,24.8,80,30.14,10.0,Calm,Calm,-,N/A,,Scattered Clouds,0,2013-01-15 11:36:00
2:56 AM,30.2,24.8,80,30.15,10.0,Calm,Calm,-,N/A,,Mostly Cloudy,0,2013-01-15 11:56:00
3:16 AM,30.2,24.8,80,30.15,10.0,Calm,Calm,-,N/A,,Mostly Cloudy,0,2013-01-15 12:16:00
3:36 AM,30.2,24.8,80,30.15,10.0,Calm,Calm,-,N/A,,Mostly Cloudy,0,2013-01-15 12:36:00
3:56 AM,32.0,24.8,75,30.16,10.0,Calm,Calm,-,N/A,,Overcast,0,2013-01-15 12:56:00
4:16 AM,30.2,24.8,80,30.15,10.0,Calm,Calm,-,N/A,,Mostly Cloudy,0,2013-01-15 13:16:00
4:36 AM,30.2,24.8,80,30.16,10.0,Calm,Calm,-,N/A,,Mostly Cloudy,0,2013-01-15 13:36:00
4:56 AM,30.2,24.8,80,30.16,10.0,Calm,Calm,-,N/A,,Overcast,0,2013-01-15 13:56:00
5:16 AM,30.2,24.8,80,30.16,10.0,Calm,Calm,-,N/A,,Overcast,0,2013-01-15 14:16:00
5:36 AM,30.2,24.8,80,30.16,10.0,Calm,Calm,-,N/A,,Overcast,0,2013-01-15 14:36:00
5:56 AM,32.0,26.6,80,30.15,10.0,Calm,Calm,-,N/A,,Overcast,0,2013-01-15 14:56:00
6:16 AM,32.0,26.6,80,30.15,10.0,Calm,Calm,-,N/A,,Overcast,0,2013-01-15 15:16:00
6:36 AM,32.0,26.6,80,30.16,10.0,SSW,3.5,-,N/A,,Overcast,200,2013-01-15 15:36:00
6:56 AM,32.0,26.6,80,30.16,10.0,Calm,Calm,-,N/A,,Overcast,0,2013-01-15 15:56:00
7:16 AM,32.0,26.6,80,30.16,10.0,SSE,4.6,-,N/A,,Overcast,150,2013-01-15 16:16:00
7:36 AM,32.0,26.6,80,30.16,10.0,Calm,Calm,-,N/A,,Overcast,0,2013-01-15 16:36:00
7:56 AM,33.8,28.4,81,30.16,10.0,Calm,Calm,-,N/A,,Overcast,0,2013-01-15 16:56:00
8:16 AM,32.0,26.6,80,30.17,10.0,Calm,Calm,-,N/A,,Overcast,0,2013-01-15 17:16:00
8:36 AM,33.8,28.4,81,30.17,10.0,Calm,Calm,-,N/A,,Overcast,0,2013-01-15 17:36:00
8:56 AM,32.0,26.6,80,30.18,10.0,Calm,Calm,-,N/A,,Overcast,0,2013-01-15 17:56:00
9:16 AM,33.8,28.4,81,30.18,10.0,Calm,Calm,-,N/A,,Scattered Clouds,0,2013-01-15 18:16:00
9:36 AM,32.0,26.6,80,30.18,10.0,SSW,3.5,-,N/A,,Partly Cloudy,200,2013-01-15 18:36:00
9:56 AM,32.0,26.6,80,30.19,10.0,WSW,3.5,-,N/A,,Mostly Cloudy,240,2013-01-15 18:56:00
10:16 AM,32.0,26.6,80,30.19,10.0,Calm,Calm,-,N/A,,Mostly Cloudy,0,2013-01-15 19:16:00
10:36 AM,32.0,26.6,80,30.19,10.0,Calm,Calm,-,N/A,,Overcast,0,2013-01-15 19:36:00
10:56 AM,32.0,28.4,87,30.19,10.0,Calm,Calm,-,N/A,,Mostly Cloudy,0,2013-01-15 19:56:00
11:16 AM,33.8,26.6,75,30.20,10.0,Calm,Calm,-,N/A,,Scattered Clouds,0,2013-01-15 20:16:00
11:36 AM,33.8,28.4,81,30.20,10.0,Calm,Calm,-,N/A,,Overcast,0,2013-01-15 20:36:00
11:56 AM,33.8,28.4,81,30.19,10.0,Calm,Calm,-,N/A,,Overcast,0,2013-01-15 20:56:00
12:16 PM,35.6,28.4,75,30.18,10.0,South,3.5,-,N/A,,Overcast,190,2013-01-15 21:16:00
12:36 PM,35.6,30.2,81,30.18,10.0,NNW,3.5,-,N/A,,Overcast,340,2013-01-15 21:36:00
12:56 PM,33.8,28.4,81,30.17,10.0,ESE,3.5,-,N/A,,Overcast,120,2013-01-15 21:56:00
1:16 PM,33.8,28.4,81,30.17,10.0,Calm,Calm,-,N/A,,Mostly Cloudy,0,2013-01-15 22:16:00
1:36 PM,35.6,28.4,75,30.17,10.0,Calm,Calm,-,N/A,,Overcast,0,2013-01-15 22:36:00
1:56 PM,33.8,28.4,81,30.16,10.0,Calm,Calm,-,N/A,,Overcast,0,2013-01-15 22:56:00
2:16 PM,33.8,30.2,87,30.15,10.0,Calm,Calm,-,N/A,,Overcast,0,2013-01-15 23:16:00
2:36 PM,35.6,28.4,75,30.15,10.0,SSE,3.5,-,N/A,,Overcast,160,2013-01-15 23:36:00
2:56 PM,35.6,28.4,75,30.15,10.0,Calm,Calm,-,N/A,,Overcast,0,2013-01-15 23:56:00
3:16 PM,33.8,28.4,81,30.16,10.0,Calm,Calm,-,N/A,,Overcast,0,2013-01-16 00:16:00
3:36 PM,33.8,28.4,81,30.16,10.0,Calm,Calm,-,N/A,,Overcast,0,2013-01-16 00:36:00
3:56 PM,33.8,28.4,81,30.16,10.0,Calm,Calm,-,N/A,,Mostly Cloudy,0,2013-01-16 00:56:00
4:16 PM,33.8,28.4,81,30.17,10.0,Calm,Calm,-,N/A,,Scattered Clouds,0,2013-01-16 01:16:00
4:36 PM,33.8,28.4,81,30.17,10.0,Calm,Calm,-,N/A,,Partly Cloudy,0,2013-01-16 01:36:00
4:56 PM,33.8,28.4,81,30.17,10.0,Calm,Calm,-,N/A,,Mostly Cloudy,0,2013-01-16 01:56:00
5:16 PM,33.8,28.4,81,30.18,10.0,East,4.6,-,N/A,,Overcast,100,2013-01-16 02:16:00
5:36 PM,33.8,28.4,81,30.18,10.0,Calm,Calm,-,N/A,,Overcast,0,2013-01-16 02:36:00
5:56 PM,33.8,28.4,81,30.17,10.0,SSE,3.5,-,N/A,,Scattered Clouds,160,2013-01-16 02:56:00
6:16 PM,33.8,28.4,81,30.17,10.0,Calm,Calm,-,N/A,,Partly Cloudy,0,2013-01-16 03:16:00
6:36 PM,33.8,28.4,81,30.17,10.0,Calm,Calm,-,N/A,,Partly Cloudy,0,2013-01-16 03:36:00
6:56 PM,30.2,26.6,86,30.17,10.0,Calm,Calm,-,N/A,,Clear,0,2013-01-16 03:56:00
7:16 PM,32.0,28.4,87,30.17,10.0,Calm,Calm,-,N/A,,Scattered Clouds,0,2013-01-16 04:16:00
7:36 PM,32.0,28.4,87,30.17,10.0,Calm,Calm,-,N/A,,Scattered Clouds,0,2013-01-16 04:36:00
7:56 PM,32.0,28.4,87,30.17,10.0,Calm,Calm,-,N/A,,Clear,0,2013-01-16 04:56:00
8:16 PM,33.8,28.4,81,30.17,10.0,East,3.5,-,N/A,,Clear,100,2013-01-16 05:16:00
8:36 PM,33.8,26.6,75,30.16,10.0,Calm,Calm,-,N/A,,Clear,0,2013-01-16 05:36:00
9:16 PM,33.8,28.4,81,30.16,10.0,Calm,Calm,-,N/A,,Clear,0,2013-01-16 06:16:00
9:36 PM,30.2,26.6,86,30.16,10.0,North,4.6,-,N/A,,Clear,10,2013-01-16 06:36:00
9:56 PM,32.0,28.4,87,30.15,10.0,SE,4.6,-,N/A,,Clear,140,2013-01-16 06:56:00
10:16 PM,30.2,26.6,86,30.16,10.0,Calm,Calm,-,N/A,,Clear,0,2013-01-16 07:16:00
10:36 PM,32.0,26.6,80,30.16,10.0,Calm,Calm,-,N/A,,Clear,0,2013-01-16 07:36:00
10:56 PM,32.0,26.6,80,30.16,10.0,Calm,Calm,-,N/A,,Partly Cloudy,0,2013-01-16 07:56:00
11:16 PM,28.4,24.8,86,30.16,10.0,Calm,Calm,-,N/A,,Scattered Clouds,0,2013-01-16 08:16:00
11:36 PM,30.2,26.6,86,30.16,10.0,Calm,Calm,-,N/A,,Mostly Cloudy,0,2013-01-16 08:36:00
11:56 PM,32.0,26.6,80,30.16,10.0,Calm,Calm,-,N/A,,Overcast,0,2013-01-16 08:56:00